Time,TemperatureF,DewpointF,PressureIn,WindDirection,WindDirectionDegrees,WindSpeedMPH,WindSpeedGustMPH,Humidity,HourlyPrecipIn,Conditions,Clouds,dailyrainin,SoftwareType,DateUTC
2013-03-06 00:06:00,42.6,42.1,29.42,NNW,337,1.7,-999.0,98,-99.99,,,0.00,Acu-Link.com,2013-03-06 05:06:00,
2013-03-06 00:22:00,42.6,42.1,29.41,NNE,22,2.7,-999.0,98,-99.99,,,0.00,Acu-Link.com,2013-03-06 05:22:00,
2013-03-06 00:37:00,42.8,42.3,29.40,SSW,202,0.0,-999.0,98,-99.99,,,0.00,Acu-Link.com,2013-03-06 05:37:00,
2013-03-06 00:52:00,43.0,42.5,29.39,West,270,1.1,-999.0,98,-99.99,,,0.00,Acu-Link.com,2013-03-06 05:52:00,
2013-03-06 01:11:00,43.0,42.5,29.38,SSE,157,1.7,-999.0,98,-99.99,,,0.00,Acu-Link.com,2013-03-06 06:11:00,
2013-03-06 01:26:00,43.5,43.0,29.37,South,180,0.0,-999.0,98,-99.99,,,0.00,Acu-Link.com,2013-03-06 06:26:00,
2013-03-06 01:41:00,43.9,43.4,29.37,WSW,247,3.7,-999.0,98,-99.99,,,0.00,Acu-Link.com,2013-03-06 06:41:00,
2013-03-06 01:56:00,43.7,43.2,29.37,WSW,247,0.0,-999.0,98,-99.99,,,0.00,Acu-Link.com,2013-03-06 06:56:00,
2013-03-06 02:12:00,42.8,42.3,29.37,NNE,22,0.0,-999.0,98,-99.99,,,0.00,Acu-Link.com,2013-03-06 07:12:00,
2013-03-06 02:27:00,42.4,41.9,29.37,NNW,337,1.7,-999.0,98,-99.99,,,0.00,Acu-Link.com,2013-03-06 07:27:00,
2013-03-06 02:42:00,41.4,40.9,29.39,NNW,337,3.7,-999.0,98,-99.99,,,0.00,Acu-Link.com,2013-03-06 07:42:00,
2013-03-06 02:57:00,40.5,40.0,29.38,WNW,292,2.2,-999.0,98,-99.99,,,0.00,Acu-Link.com,2013-03-06 07:57:00,
2013-03-06 03:13:00,40.1,39.6,29.39,West,270,3.2,-999.0,98,-99.99,,,0.00,Acu-Link.com,2013-03-06 08:13:00,
2013-03-06 03:28:00,39.9,39.4,29.39,NNW,337,5.3,-999.0,98,-99.99,,,0.00,Acu-Link.com,2013-03-06 08:28:00,
2013-03-06 03:43:00,39.6,39.1,29.40,WNW,292,2.2,-999.0,98,-99.99,,,0.00,Acu-Link.com,2013-03-06 08:43:00,
2013-03-06 03:59:00,39.6,39.1,29.40,NNE,22,4.2,-999.0,98,-99.99,,,0.00,Acu-Link.com,2013-03-06 08:59:00,
2013-03-06 04:23:00,39.2,38.7,29.40,West,270,2.7,-999.0,98,-99.99,,,0.00,Acu-Link.com,2013-03-06 09:23:00,
2013-03-06 04:38:00,39.2,38.7,29.41,WSW,247,3.7,-999.0,98,-99.99,,,0.00,Acu-Link.com,2013-03-06 09:38:00,
2013-03-06 04:53:00,38.8,38.3,29.42,WNW,292,7.8,-999.0,98,-99.99,,,0.00,Acu-Link.com,2013-03-06 09:53:00,
2013-03-06 05:08:00,37.9,37.4,29.44,NNW,337,5.8,-999.0,98,-99.99,,,0.01,Acu-Link.com,2013-03-06 10:08:00,
2013-03-06 05:23:00,37.0,36.5,29.43,NW,315,4.7,-999.0,98,-99.99,,,0.01,Acu-Link.com,2013-03-06 10:23:00,
2013-03-06 05:39:00,36.5,36.0,29.44,North,0,2.7,-999.0,98,-99.99,,,0.01,Acu-Link.com,2013-03-06 10:39:00,
2013-03-06 05:54:00,36.0,35.5,29.44,West,270,2.7,-999.0,98,-99.99,,,0.01,Acu-Link.com,2013-03-06 10:54:00,
2013-03-06 06:09:00,35.8,35.3,29.45,NNE,22,3.2,-999.0,98,-99.99,,,0.01,Acu-Link.com,2013-03-06 11:09:00,
2013-03-06 06:24:00,35.8,35.3,29.46,NW,315,4.2,-999.0,98,-99.99,,,0.01,Acu-Link.com,2013-03-06 11:24:00,
2013-03-06 06:40:00,36.0,35.5,29.45,NW,315,3.7,-999.0,98,-99.99,,,0.01,Acu-Link.com,2013-03-06 11:40:00,
2013-03-06 06:55:00,36.0,35.5,29.45,West,270,2.2,-999.0,98,-99.99,,,0.01,Acu-Link.com,2013-03-06 11:55:00,
2013-03-06 07:10:00,36.1,35.6,29.46,WNW,292,1.7,-999.0,98,-99.99,,,0.01,Acu-Link.com,2013-03-06 12:10:00,
2013-03-06 07:26:00,36.7,36.2,29.47,West,270,1.7,-999.0,98,-99.99,,,0.01,Acu-Link.com,2013-03-06 12:26:00,
2013-03-06 07:41:00,37.0,36.5,29.47,WNW,292,3.2,-999.0,98,-99.99,,,0.01,Acu-Link.com,2013-03-06 12:41:00,
2013-03-06 07:56:00,37.0,36.5,29.48,South,180,7.8,-999.0,98,-99.99,,,0.01,Acu-Link.com,2013-03-06 12:56:00,
2013-03-06 08:11:00,37.2,36.7,29.49,West,270,4.7,-999.0,98,-99.99,,,0.01,Acu-Link.com,2013-03-06 13:11:00,
2013-03-06 08:26:00,38.1,36.5,29.48,SE,135,4.7,-999.0,94,-99.99,,,0.01,Acu-Link.com,2013-03-06 13:26:00,
2013-03-06 08:41:00,38.3,36.5,29.49,NE,45,4.2,-999.0,93,-99.99,,,0.01,Acu-Link.com,2013-03-06 13:41:00,
2013-03-06 08:57:00,39.0,36.3,29.49,NW,315,3.2,-999.0,90,-99.99,,,0.01,Acu-Link.com,2013-03-06 13:57:00,
2013-03-06 09:12:00,39.2,36.2,29.50,SSE,157,5.3,-999.0,89,-99.99,,,0.01,Acu-Link.com,2013-03-06 14:12:00,
2013-03-06 09:27:00,39.0,35.5,29.50,NNE,22,5.8,-999.0,87,-99.99,,,0.01,Acu-Link.com,2013-03-06 14:27:00,
2013-03-06 09:42:00,39.7,35.3,29.50,WSW,247,6.3,-999.0,84,-99.99,,,0.01,Acu-Link.com,2013-03-06 14:42:00,
2013-03-06 09:57:00,40.3,35.6,29.51,West,270,5.3,-999.0,83,-99.99,,,0.01,Acu-Link.com,2013-03-06 14:57:00,
2013-03-06 10:13:00,40.8,36.0,29.51,NE,45,3.2,-999.0,83,-99.99,,,0.01,Acu-Link.com,2013-03-06 15:13:00,
2013-03-06 10:28:00,41.5,34.5,29.51,North,0,5.3,-999.0,76,-99.99,,,0.01,Acu-Link.com,2013-03-06 15:28:00,
2013-03-06 10:43:00,41.2,34.9,29.51,NW,315,3.2,-999.0,78,-99.99,,,0.01,Acu-Link.com,2013-03-06 15:43:00,
2013-03-06 10:58:00,41.5,33.5,29.52,WSW,247,5.3,-999.0,73,-99.99,,,0.01,Acu-Link.com,2013-03-06 15:58:00,
2013-03-06 11:13:00,42.1,33.0,29.53,West,270,7.8,-999.0,70,-99.99,,,0.01,Acu-Link.com,2013-03-06 16:13:00,
2013-03-06 11:28:00,41.5,33.2,29.53,West,270,8.3,-999.0,72,-99.99,,,0.01,Acu-Link.com,2013-03-06 16:28:00,
2013-03-06 11:43:00,41.7,33.4,29.54,WNW,292,4.2,-999.0,72,-99.99,,,0.01,Acu-Link.com,2013-03-06 16:43:00,
2013-03-06 11:58:00,41.7,33.4,29.53,NNW,337,5.8,-999.0,72,-99.99,,,0.01,Acu-Link.com,2013-03-06 16:58:00,
2013-03-06 12:14:00,42.1,32.3,29.53,NW,315,9.4,-999.0,68,-99.99,,,0.01,Acu-Link.com,2013-03-06 17:14:00,
2013-03-06 12:29:00,42.6,32.4,29.54,West,270,4.7,-999.0,67,-99.99,,,0.01,Acu-Link.com,2013-03-06 17:29:00,
2013-03-06 12:44:00,43.0,32.4,29.54,NW,315,5.8,-999.0,66,-99.99,,,0.01,Acu-Link.com,2013-03-06 17:44:00,
2013-03-06 12:59:00,43.5,32.9,29.55,North,0,6.8,-999.0,66,-99.99,,,0.01,Acu-Link.com,2013-03-06 17:59:00,
2013-03-06 13:15:00,43.5,33.3,29.54,West,270,10.4,-999.0,67,-99.99,,,0.01,Acu-Link.com,2013-03-06 18:15:00,
2013-03-06 13:30:00,43.9,33.7,29.55,West,270,8.3,-999.0,67,-99.99,,,0.01,Acu-Link.com,2013-03-06 18:30:00,
2013-03-06 13:45:00,44.2,34.3,29.55,NE,45,5.3,-999.0,68,-99.99,,,0.01,Acu-Link.com,2013-03-06 18:45:00,
2013-03-06 14:00:00,45.1,34.4,29.57,WNW,292,12.5,-999.0,66,-99.99,,,0.01,Acu-Link.com,2013-03-06 19:00:00,
2013-03-06 14:16:00,44.8,35.3,29.57,NNE,22,3.7,-999.0,69,-99.99,,,0.01,Acu-Link.com,2013-03-06 19:16:00,
2013-03-06 14:31:00,45.5,35.9,29.57,East,90,6.8,-999.0,69,-99.99,,,0.01,Acu-Link.com,2013-03-06 19:31:00,
2013-03-06 14:47:00,45.5,35.9,29.58,West,270,5.8,-999.0,69,-99.99,,,0.01,Acu-Link.com,2013-03-06 19:47:00,
2013-03-06 15:02:00,46.0,36.4,29.58,NNW,337,3.2,-999.0,69,-99.99,,,0.01,Acu-Link.com,2013-03-06 20:02:00,
2013-03-06 15:17:00,46.2,36.6,29.59,West,270,6.3,-999.0,69,-99.99,,,0.01,Acu-Link.com,2013-03-06 20:17:00,
2013-03-06 15:32:00,45.7,36.5,29.61,NNW,337,10.4,-999.0,70,-99.99,,,0.01,Acu-Link.com,2013-03-06 20:32:00,
2013-03-06 15:47:00,45.7,36.8,29.62,West,270,7.3,-999.0,71,-99.99,,,0.01,Acu-Link.com,2013-03-06 20:47:00,
2013-03-06 16:03:00,45.9,36.7,29.63,SSW,202,6.3,-999.0,70,-99.99,,,0.01,Acu-Link.com,2013-03-06 21:03:00,
2013-03-06 16:18:00,45.9,37.4,29.65,North,0,5.3,-999.0,72,-99.99,,,0.01,Acu-Link.com,2013-03-06 21:18:00,
2013-03-06 16:33:00,45.7,37.5,29.66,West,270,8.9,-999.0,73,-99.99,,,0.01,Acu-Link.com,2013-03-06 21:33:00,
2013-03-06 16:48:00,45.5,38.4,29.68,NNE,22,4.7,-999.0,76,-99.99,,,0.01,Acu-Link.com,2013-03-06 21:48:00,
2013-03-06 17:03:00,44.8,38.7,29.69,NNW,337,2.2,-999.0,79,-99.99,,,0.01,Acu-Link.com,2013-03-06 22:03:00,
2013-03-06 17:19:00,44.6,38.5,29.71,SW,225,2.7,-999.0,79,-99.99,,,0.01,Acu-Link.com,2013-03-06 22:19:00,
2013-03-06 17:34:00,44.4,38.3,29.71,West,270,2.7,-999.0,79,-99.99,,,0.01,Acu-Link.com,2013-03-06 22:34:00,
2013-03-06 17:49:00,44.2,38.4,29.73,NE,45,4.2,-999.0,80,-99.99,,,0.01,Acu-Link.com,2013-03-06 22:49:00,
2013-03-06 18:04:00,44.2,38.4,29.74,NW,315,4.7,-999.0,80,-99.99,,,0.01,Acu-Link.com,2013-03-06 23:04:00,
2013-03-06 18:20:00,44.1,38.6,29.76,West,270,2.7,-999.0,81,-99.99,,,0.01,Acu-Link.com,2013-03-06 23:20:00,
2013-03-06 18:35:00,43.9,38.5,29.76,NW,315,4.2,-999.0,81,-99.99,,,0.01,Acu-Link.com,2013-03-06 23:35:00,
2013-03-06 18:50:00,43.7,38.3,29.77,North,0,1.7,-999.0,81,-99.99,,,0.01,Acu-Link.com,2013-03-06 23:50:00,
2013-03-06 19:06:00,43.9,36.8,29.79,NW,315,2.2,-999.0,76,-99.99,,,0.01,Acu-Link.com,2013-03-07 00:06:00,
2013-03-06 19:21:00,43.9,36.5,29.79,North,0,1.1,-999.0,75,-99.99,,,0.01,Acu-Link.com,2013-03-07 00:21:00,
2013-03-06 19:36:00,43.3,35.9,29.81,NNW,337,3.2,-999.0,75,-99.99,,,0.01,Acu-Link.com,2013-03-07 00:36:00,
2013-03-06 19:51:00,43.0,35.6,29.81,West,270,7.3,-999.0,75,-99.99,,,0.01,Acu-Link.com,2013-03-07 00:51:00,
2013-03-06 20:22:00,42.3,35.3,29.83,West,270,2.7,-999.0,76,-99.99,,,0.01,Acu-Link.com,2013-03-07 01:22:00,
2013-03-06 20:37:00,42.1,35.1,29.84,West,270,7.3,-999.0,76,-99.99,,,0.01,Acu-Link.com,2013-03-07 01:37:00,
2013-03-06 20:52:00,42.1,35.4,29.85,NW,315,2.7,-999.0,77,-99.99,,,0.01,Acu-Link.com,2013-03-07 01:52:00,
2013-03-06 21:07:00,41.9,35.6,29.85,West,270,4.2,-999.0,78,-99.99,,,0.01,Acu-Link.com,2013-03-07 02:07:00,
2013-03-06 21:23:00,41.7,35.4,29.86,West,270,2.7,-999.0,78,-99.99,,,0.01,Acu-Link.com,2013-03-07 02:23:00,
2013-03-06 21:38:00,41.4,35.4,29.86,NW,315,1.7,-999.0,79,-99.99,,,0.01,Acu-Link.com,2013-03-07 02:38:00,
2013-03-06 21:53:00,41.0,35.3,29.86,West,270,0.0,-999.0,80,-99.99,,,0.01,Acu-Link.com,2013-03-07 02:53:00,
2013-03-06 22:08:00,40.1,34.7,29.87,NW,315,2.7,-999.0,81,-99.99,,,0.01,Acu-Link.com,2013-03-07 03:08:00,
2013-03-06 22:24:00,39.4,34.4,29.87,NNW,337,2.7,-999.0,82,-99.99,,,0.01,Acu-Link.com,2013-03-07 03:24:00,
2013-03-06 22:39:00,38.7,34.0,29.87,NW,315,3.7,-999.0,83,-99.99,,,0.01,Acu-Link.com,2013-03-07 03:39:00,
2013-03-06 22:54:00,38.5,33.8,29.88,WNW,292,2.7,-999.0,83,-99.99,,,0.01,Acu-Link.com,2013-03-07 03:54:00,
2013-03-06 23:09:00,38.1,33.7,29.88,NW,315,4.7,-999.0,84,-99.99,,,0.01,Acu-Link.com,2013-03-07 04:09:00,
2013-03-06 23:24:00,37.9,33.5,29.88,WNW,292,2.2,-999.0,84,-99.99,,,0.01,Acu-Link.com,2013-03-07 04:24:00,
2013-03-06 23:39:00,37.6,33.8,29.88,NNW,337,1.7,-999.0,86,-99.99,,,0.01,Acu-Link.com,2013-03-07 04:39:00,
2013-03-06 23:55:00,37.0,33.2,29.89,West,270,1.7,-999.0,86,-99.99,,,0.01,Acu-Link.com,2013-03-07 04:55:00,